EW9174 Weather Reports


Display with metric or nautical units.
time (UTC)temp
F
wind
direction
speed
MPH
gust
MPH
rain 1hr
in
rain 24hr
in
rain mn
in
humidity
%
barometer
mb
20260505010022 69 71 1.0 6.0 0.00 0.00 0.00 31 996.5
20260505004521 69 58 1.0 7.0 0.00 0.00 0.00 30 996.2
20260505003020 70 34 1.0 3.0 0.00 0.00 0.00 29 995.9
20260505001520 71 60 0.0 5.0 0.00 0.00 0.00 29 995.9
20260505000021 72 72 1.0 9.0 0.00 0.00 0.00 27 995.9
20260504234519 72 26 2.0 8.0 0.00 0.00 0.00 27 995.7
20260504233018 74 26 3.0 16.0 0.00 0.00 0.00 25 995.9
20260504231516 76 344 5.0 9.0 0.00 0.00 0.00 19 995.5
20260504230017 76 340 2.0 8.0 0.00 0.00 0.00 19 995.3
20260504224516 77 280 3.0 13.0 0.00 0.00 0.00 19 995.4
20260504223022 77 337 4.0 13.0 0.00 0.00 0.00 19 995.3
20260504221614 77 355 2.0 7.0 0.00 0.00 0.00 19 995.5
20260504220012 77 21 2.0 8.0 0.00 0.00 0.00 20 995.8
20260504214511 78 214 1.0 11.0 0.00 0.00 0.00 21 995.8
20260504213010 78 35 5.0 15.0 0.00 0.00 0.00 20 996.0
20260504211507 78 332 5.0 12.0 0.00 0.00 0.00 22 996.3
20260504210010 78 344 3.0 10.0 0.00 0.00 0.00 21 996.5
20260504204508 79 315 4.0 9.0 0.00 0.00 0.00 20 996.6
20260504203004 78 293 2.0 11.0 0.00 0.00 0.00 22 996.6
20260504201502 79 14 3.0 9.0 0.00 0.00 0.00 19 996.8
20260504200002 79 355 2.0 6.0 0.00 0.00 0.00 17 996.8
20260504194606 79 327 4.0 12.0 0.00 0.00 0.00 17 996.8
20260504193102 79 28 4.0 10.0 0.00 0.00 0.00 17 996.9
20260504191612 78 19 3.0 9.0 0.00 0.00 0.00 18 997.0
20260504190059 78 5 2.0 7.0 0.00 0.00 0.00 17 997.2
20260504184554 78 20 0.0 6.0 0.00 0.00 0.00 19 997.4
20260504183053 78 343 4.0 9.0 0.00 0.00 0.00 19 997.8
20260504181556 77 9 3.0 13.0 0.00 0.00 0.00 20 998.1
20260504180047 77 11 0.0 8.0 0.00 0.00 0.00 20 998.2
20260504174544 76 45 2.0 8.0 0.00 0.00 0.00 22 998.4
20260504173041 76 239 2.0 10.0 0.00 0.00 0.00 23 998.8
20260504171546 75 36 3.0 9.0 0.00 0.00 0.00 23 999.1
20260504081510 52 51 0.0 2.0 0.00 0.00 0.00 55 1002.8
20260504044541 62 53 1.0 4.0 0.00 0.00 0.00 34 1003.4
20260504043048 63 52 1.0 4.0 0.00 0.00 0.00 32 1003.6
20260504041540 63 44 0.0 6.0 0.00 0.00 0.00 34 1003.7
20260504040039 65 55 2.0 6.0 0.00 0.00 0.00 31 1003.8
20260504034540 65 70 1.0 7.0 0.00 0.00 0.00 28 1003.5
20260504033040 65 48 0.0 4.0 0.00 0.00 0.00 31 1003.5
20260504031541 67 45 0.0 5.0 0.00 0.00 0.00 29 1003.5
20260504030037 68 14 0.0 0.0 0.00 0.00 0.00 25 1002.9
20260504024537 69 14 0.0 0.0 0.00 0.00 0.00 25 1003.0
20260504023037 69 14 0.0 3.0 0.00 0.00 0.00 22 1003.0
20260504021535 69 14 0.0 1.0 0.00 0.00 0.00 24 1002.8
20260504020034 71 14 0.0 0.0 0.00 0.00 0.00 21 1002.6
20260504014539 73 14 0.0 0.0 0.00 0.00 0.00 20 1002.4
20260504013040 75 14 0.0 0.0 0.00 0.00 0.00 18 1002.3
20260504011534 76 11 0.0 3.0 0.00 0.00 0.00 16 1002.4